TimeEST,TemperatureF,Dew PointF,Humidity,Sea Level PressureIn,VisibilityMPH,Wind Direction,Wind SpeedMPH,Gust SpeedMPH,PrecipitationIn,Events,Conditions,WindDirDegrees,DateUTC
12:53 AM,66.9,62.1,84,30.22,10.0,East,5.8,-,N/A,,Clear,80,2013-01-29 05:53:00
1:53 AM,64.0,62.1,93,30.20,10.0,ENE,5.8,-,N/A,,Clear,60,2013-01-29 06:53:00
2:53 AM,64.0,62.1,93,30.19,9.0,ENE,4.6,-,N/A,,Clear,60,2013-01-29 07:53:00
3:53 AM,63.0,62.1,97,30.19,9.0,ENE,5.8,-,N/A,,Clear,60,2013-01-29 08:53:00
4:53 AM,64.0,63.0,96,30.18,8.0,ENE,5.8,-,N/A,,Clear,60,2013-01-29 09:53:00
5:53 AM,63.0,63.0,100,30.19,8.0,ENE,5.8,-,N/A,,Clear,70,2013-01-29 10:53:00
6:53 AM,64.9,64.9,100,30.20,7.0,East,4.6,-,N/A,,Mostly Cloudy,80,2013-01-29 11:53:00
7:53 AM,66.9,66.0,97,30.21,6.0,East,8.1,-,N/A,,Mostly Cloudy,100,2013-01-29 12:53:00
8:53 AM,71.1,66.9,87,30.21,8.0,East,8.1,-,N/A,,Mostly Cloudy,100,2013-01-29 13:53:00
9:53 AM,77.0,68.0,74,30.21,10.0,ESE,11.5,19.6,N/A,,Partly Cloudy,120,2013-01-29 14:53:00
10:53 AM,79.0,66.9,66,30.21,10.0,SE,12.7,-,N/A,,Scattered Clouds,130,2013-01-29 15:53:00
11:53 AM,80.1,66.0,62,30.18,10.0,ESE,12.7,-,N/A,,Mostly Cloudy,120,2013-01-29 16:53:00
12:53 PM,82.9,64.9,54,30.15,10.0,SE,15.0,19.6,N/A,,Scattered Clouds,130,2013-01-29 17:53:00
1:53 PM,82.9,66.9,58,30.11,10.0,SSE,17.3,21.9,N/A,,Scattered Clouds,160,2013-01-29 18:53:00
2:53 PM,82.0,66.0,58,30.09,10.0,SE,13.8,-,N/A,,Scattered Clouds,140,2013-01-29 19:53:00
3:53 PM,81.0,66.9,62,30.10,10.0,South,12.7,-,N/A,,Mostly Cloudy,180,2013-01-29 20:53:00
4:53 PM,81.0,66.9,62,30.11,10.0,SSE,13.8,-,N/A,,Mostly Cloudy,160,2013-01-29 21:53:00
5:53 PM,77.0,66.9,71,30.11,10.0,South,9.2,-,N/A,,Mostly Cloudy,180,2013-01-29 22:53:00
6:53 PM,75.0,68.0,79,30.11,10.0,SSE,11.5,-,N/A,,Partly Cloudy,160,2013-01-29 23:53:00
7:53 PM,73.0,68.0,84,30.12,10.0,SE,5.8,-,N/A,,Clear,140,2013-01-30 00:53:00
8:53 PM,73.0,68.0,84,30.12,10.0,SE,9.2,-,N/A,,Partly Cloudy,130,2013-01-30 01:53:00
9:53 PM,72.0,66.9,84,30.12,10.0,ESE,5.8,-,N/A,,Clear,110,2013-01-30 02:53:00
10:53 PM,70.0,66.9,90,30.12,10.0,East,8.1,-,N/A,,Clear,100,2013-01-30 03:53:00
11:53 PM,70.0,66.0,87,30.11,10.0,ESE,8.1,-,N/A,,Clear,120,2013-01-30 04:53:00